sat.trackr.live / text

‹ back to catalog

STARLINK-30413

NORAD 57814 · 2023-138G

PAYLOAD ACTIVE UNKNOWN

§ Identity

Operator
Country
US
Launch date
2023-09-09
Launch site
AFETR
Launch vehicle
Mass (kg)
RCS (m²)

Purposes: comms

External: N2YO · Heavens-Above · Gunter

§ Orbital elements

Epoch: 2026-05-25T01:36:44.938656Z

Period
94.27 min
Inclination
43.0007°
Eccentricity
0.0001343
Mean motion
15.27587371 rev/d
Perigee alt
482.1 km
Apogee alt
483.9 km
Semi-major
6,861.2 km
B*
-8.5576e-7
RAAN
163.3246°
Arg perigee
272.7247°
Mean anomaly
87.3451°
Rev number
15,041

§ Raw data

STARLINK-304131 57814U 23138G   26145.06718679 -.00000286  00000+0 -85576-6 0  99982 57814  43.0007 163.3246 0001343 272.7247  87.3451 15.27587371150413

JSON: /api/v1/satellites/57814 · /tle

For live sub-satellite position, see the globe view (requires WebGL).

§ Visibility from observer

Set your observer location to see the next 7 days of passes ≥ 10°. The values pass through the URL so the page stays shareable.

No JS? Fill the form by hand. The geolocation button needs JavaScript.